Boise, ID

7:48 AM MST on February 23, 2017 (GMT -0700)
Boise Air Term

Weather History for KBOI - July, 2013

Change the Weather History Date:

Wednesday, July 3, 2013

  Actual Average Record
Temperature  
Mean Temperature 89 °F 73 °F  
Max Temperature 99 °F 88 °F 106 °F (2001)
Min Temperature 78 °F 58 °F 40 °F (1983)
Degree Days  
Heating Degree Days 0 1  
Month to date heating degree days 0 3  
Since 1 June heating degree days 35 67  
Since 1 July heating degree days 0 3  
Cooling Degree Days 24 8  
Month to date cooling degree days 79 24  
Year to date cooling degree days 317 207  
Since 1 June cooling degree days 270 163  
Growing Degree Days 38 (Base 50)    
Moisture  
Dew Point 54 °F    
Average Humidity 35    
Maximum Humidity 52    
Minimum Humidity 18    
Precipitation  
Precipitation 0.00 in 0.01 in 0.23 in (1940)
Month to date precipitation T 0.04  
Year to date precipitation 4.33 6.97  
Snow  
Snow 0.00 in 0.00 in 0.00 in (2006)
Month to date snowfall 0.0 0.0  
Since 1 July snowfall 0.0 0.0  
Snow Depth 0.00 in    
Sea Level Pressure  
Sea Level Pressure 29.89 in    
Wind  
Wind Speed 10 mph (WSW)    
Max Wind Speed 18 mph    
Max Gust Speed 25 mph    
Visibility 10 miles    
Events Thunderstorm    
T = Trace of Precipitation, MM = Missing Value Source: NWS Daily Summary

Daily Weather History Graph

Daily Weather History Graph

Search for Another Location

Airport or City:

Trip Planner

Search our weather history database for the weather conditions in past years. The results will help you decide how hot, cold, wet, or windy it might be!

Date:

Astronomy

Jul. 03, 2013 Rise Set
Actual Time 6:08 AM MDT 9:29 PM MDT
Civil Twilight 5:33 AM MDT 10:04 PM MDT
Nautical Twilight 4:47 AM MDT 10:50 PM MDT
Astronomical Twilight 3:49 AM MDT 11:48 PM MDT
Moon 2:53 AM MDT (7/3) 5:41 PM MDT (7/3)
Length of Visible Light 16h 31m
Length of Day
15h 20m
Waning Crescent, 18% of the Moon is Illuminated
Jul 3
Waning Crescent
Jul 8
New
Jul 15
First Quarter
Jul 22
Full
Jul 29
Last Quarter

Hourly Weather History & Observations

Time (MDT) Temp. Heat Index Dew Point Humidity Pressure Visibility Wind Dir Wind Speed Gust Speed Precip Events Conditions
12:40 AM 89.6 °F 87.7 °F 55.4 °F 31% 30.00 in 10.0 mi SE 8.1 mph - N/A Thunderstorm Clear
12:49 AM 87.8 °F 86.1 °F 55.4 °F 33% 30.00 in 2.0 mi Calm Calm - N/A Thunderstorm Haze
12:53 AM 87.1 °F 85.3 °F 55.0 °F 33% 29.89 in 7.0 mi Calm Calm - N/A Thunderstorm Clear
1:11 AM 87.8 °F - 51.8 °F 29% 30.01 in 10.0 mi ESE 15.0 mph 21.9 mph N/A   Mostly Cloudy
1:33 AM 87.8 °F 85.7 °F 53.6 °F 31% 30.04 in 10.0 mi SE 13.8 mph 23.0 mph N/A Thunderstorm Scattered Clouds
1:53 AM 84.9 °F 83.6 °F 55.0 °F 36% 29.92 in 10.0 mi SE 9.2 mph - N/A   Mostly Cloudy
2:10 AM 82.4 °F 82.0 °F 57.2 °F 42% 30.06 in 10.0 mi East 11.5 mph 17.3 mph N/A Thunderstorm Partly Cloudy
2:27 AM 82.4 °F 82.0 °F 57.2 °F 42% 30.07 in 10.0 mi SSE 16.1 mph 19.6 mph N/A   Clear
2:53 AM 82.9 °F 82.4 °F 57.0 °F 41% 29.94 in 10.0 mi SE 18.4 mph 24.2 mph N/A   Clear
3:53 AM 80.1 °F 80.7 °F 59.0 °F 48% 29.96 in 10.0 mi South 11.5 mph - N/A   Clear
4:53 AM 81.0 °F 81.1 °F 57.9 °F 45% 29.97 in 10.0 mi SE 6.9 mph - N/A   Clear
5:53 AM 81.0 °F 81.0 °F 57.0 °F 44% 29.94 in 10.0 mi ESE 5.8 mph - N/A   Clear
6:53 AM 78.1 °F - 59.0 °F 52% 29.93 in 10.0 mi SE 3.5 mph - N/A   Clear
7:53 AM 80.1 °F 80.7 °F 59.0 °F 48% 29.91 in 10.0 mi Calm Calm - N/A   Clear
8:53 AM 82.0 °F 81.7 °F 57.0 °F 42% 29.91 in 10.0 mi NNW 6.9 mph - N/A   Clear
9:53 AM 87.1 °F 85.3 °F 55.0 °F 33% 29.90 in 10.0 mi NW 10.4 mph - N/A   Clear
10:53 AM 86.0 °F 84.7 °F 55.9 °F 36% 29.90 in 10.0 mi West 12.7 mph - N/A   Clear
11:53 AM 89.1 °F 87.1 °F 55.0 °F 31% 29.89 in 10.0 mi West 12.7 mph - N/A   Clear
12:53 PM 91.0 °F 89.7 °F 57.0 °F 32% 29.89 in 10.0 mi West 16.1 mph - N/A   Clear
1:53 PM 91.9 °F 90.0 °F 55.0 °F 29% 29.88 in 10.0 mi West 15.0 mph - N/A   Clear
2:53 PM 91.0 °F 88.9 °F 55.0 °F 29% 29.87 in 10.0 mi West 11.5 mph - N/A   Clear
3:53 PM 90.0 °F 87.9 °F 55.0 °F 30% 29.85 in 10.0 mi West 9.2 mph - N/A   Clear
4:53 PM 98.1 °F - 48.9 °F 19% 29.80 in 10.0 mi West 13.8 mph - N/A   Clear
5:53 PM 98.1 °F - 50.0 °F 20% 29.78 in 10.0 mi WNW 16.1 mph - N/A   Clear
6:53 PM 98.1 °F - 48.0 °F 18% 29.77 in 10.0 mi WNW 16.1 mph - N/A   Clear
7:53 PM 96.1 °F - 46.9 °F 19% 29.77 in 10.0 mi WNW 11.5 mph - N/A   Clear
8:53 PM 91.0 °F - 45.0 °F 20% 29.77 in 10.0 mi NW 6.9 mph - N/A   Clear
9:53 PM 89.1 °F - 48.0 °F 24% 29.78 in 10.0 mi WNW 4.6 mph - N/A   Clear
10:53 PM 86.0 °F - 46.9 °F 26% 29.80 in 10.0 mi West 6.9 mph - N/A   Clear
11:53 PM 82.0 °F - 46.9 °F 29% 29.80 in 10.0 mi NW 4.6 mph - N/A   Clear